Greenland, AR

1:53 PM CST on January 21, 2017 (GMT -0600)
Fayetteville

Weather History for KFYV - November, 2013

Change the Weather History Date:

Sunday, November 3, 2013

  Actual Average Record
Temperature  
Mean Temperature 44 °F 52 °F  
Max Temperature 60 °F 64 °F 82 °F (2002)
Min Temperature 28 °F 41 °F 11 °F (1951)
Degree Days  
Heating Degree Days 21 13  
Month to date heating degree days 53 37  
Since 1 July heating degree days 323 337  
Moisture  
Dew Point 34 °F    
Average Humidity 72    
Maximum Humidity 100    
Minimum Humidity 43    
Precipitation  
Precipitation 0.00 in 0.14 in 1.37 in (2001)
Month to date precipitation 0.00 0.43  
Year to date precipitation 40.29 41.47  
Sea Level Pressure  
Sea Level Pressure 30.17 in    
Wind  
Wind Speed 7 mph (SSE)    
Max Wind Speed 22 mph    
Max Gust Speed 29 mph    
Visibility 8 miles    
Events      
T = Trace of Precipitation, MM = Missing Value Source: NWS Daily Summary

Daily Weather History Graph

Daily Weather History Graph

Search for Another Location

Airport or City:

Trip Planner

Search our weather history database for the weather conditions in past years. The results will help you decide how hot, cold, wet, or windy it might be!

Date:

Astronomy

Nov. 03, 2013 Rise Set
Actual Time 6:41 AM CST 5:18 PM CST
Civil Twilight 6:14 AM CST 5:45 PM CST
Nautical Twilight 5:44 AM CST 6:15 PM CST
Astronomical Twilight 5:14 AM CST 6:45 PM CST
Moon 6:45 AM CST (11/3) 5:35 PM CST (11/3)
Length of Visible Light 11h 30m
Length of Day
10h 37m
New Moon, 0% of the Moon is Illuminated
Nov 3
New Moon
Nov 9
First Quarter
Nov 17
Full
Nov 25
Last Quarter
Dec 2
New

Hourly Weather History & Observations

Time (CST) Temp. Windchill Dew Point Humidity Pressure Visibility Wind Dir Wind Speed Gust Speed Precip Events Conditions
12:53 AM 33.1 °F 30.0 °F 33.1 °F 100% 30.23 in 10.0 mi SSW 3.5 mph - N/A   Clear
1:53 AM 34.0 °F - 33.1 °F 96% 30.23 in 10.0 mi Calm Calm - N/A   Clear
1:53 AM 32.0 °F - 30.9 °F 96% 30.23 in 10.0 mi Calm Calm - N/A   Clear
2:53 AM 30.9 °F - 30.0 °F 96% 30.22 in 8.0 mi Calm Calm - N/A   Clear
3:42 AM 30.2 °F - 30.2 °F 100% 30.21 in 2.0 mi Calm Calm - N/A   Partly Cloudy
3:53 AM 30.0 °F - 30.0 °F 100% 30.23 in 1.2 mi Calm Calm - N/A   Partly Cloudy
3:55 AM 28.4 °F - 28.4 °F 100% 30.21 in 0.8 mi Calm Calm - N/A   Mist
4:04 AM 30.2 °F - 30.2 °F 100% 30.21 in 1.2 mi Calm Calm - N/A   Partly Cloudy
4:12 AM 28.4 °F - 28.4 °F 100% 30.21 in 2.5 mi Calm Calm - N/A   Partly Cloudy
4:19 AM 30.2 °F - 28.4 °F 93% 30.21 in 4.0 mi Calm Calm - N/A   Partly Cloudy
4:53 AM 30.0 °F - 28.9 °F 96% 30.23 in 10.0 mi Calm Calm - N/A   Clear
5:53 AM 28.9 °F - 28.0 °F 96% 30.24 in 9.0 mi Calm Calm - N/A   Clear
6:53 AM 28.9 °F - 28.0 °F 96% 30.24 in 7.0 mi Calm Calm - N/A   Clear
7:53 AM 33.1 °F - 32.0 °F 96% 30.24 in 10.0 mi Calm Calm - N/A   Clear
8:53 AM 46.0 °F - 39.0 °F 76% 30.24 in 10.0 mi Calm Calm - N/A   Clear
9:53 AM 54.0 °F - 37.0 °F 53% 30.22 in 10.0 mi South 13.8 mph 21.9 mph N/A   Clear
10:53 AM 55.9 °F - 36.0 °F 47% 30.20 in 10.0 mi South 13.8 mph 21.9 mph N/A   Clear
11:53 AM 57.0 °F - 36.0 °F 45% 30.17 in 10.0 mi SSE 8.1 mph 18.4 mph N/A   Clear
12:53 PM 57.9 °F - 36.0 °F 44% 30.12 in 10.0 mi SSE 11.5 mph - N/A   Clear
1:53 PM 57.9 °F - 36.0 °F 44% 30.10 in 10.0 mi SSE 10.4 mph 17.3 mph N/A   Clear
2:53 PM 57.9 °F - 36.0 °F 44% 30.11 in 10.0 mi SE 10.4 mph - N/A   Clear
3:53 PM 57.0 °F - 36.0 °F 45% 30.06 in 10.0 mi SSE 8.1 mph 21.9 mph N/A   Clear
4:53 PM 54.0 °F - 37.9 °F 55% 30.09 in 10.0 mi South 9.2 mph - N/A   Clear
5:53 PM 53.1 °F - 37.9 °F 57% 30.09 in 10.0 mi SE 8.1 mph - N/A   Clear
6:53 PM 53.1 °F - 37.9 °F 57% 30.08 in 10.0 mi SSE 6.9 mph - N/A   Clear
7:53 PM 52.0 °F - 37.9 °F 59% 30.09 in 10.0 mi South 9.2 mph - N/A   Clear
8:53 PM 51.1 °F - 39.0 °F 63% 30.11 in 10.0 mi South 11.5 mph 18.4 mph N/A   Clear
9:53 PM 52.0 °F - 39.0 °F 61% 30.09 in 10.0 mi SSE 10.4 mph - N/A   Clear
10:53 PM 51.1 °F - 39.0 °F 63% 30.06 in 10.0 mi SE 11.5 mph 19.6 mph N/A   Clear